Wind_Speed
47 48 49 49 49 49 49 50 49 50 51 51 49 49 49 50 49 49 49 49 48 48 47 47 47 45 44 44 44 44 44 44 43 42 42 41 41 41 40 40 40 40 40
45 46 48 49 50 50 49 49 51 51 51 51 51 50 49 50 51 50 49 49 48 48 48 47 47 46 45 45 46 45 45 44 45 44 43 42 41 41 42 42 42 42 42
45 46 48 49 49 49 50 50 50 50 51 52 53 53 52 51 50 51 50 50 49 48 48 47 47 47 47 47 46 46 46 46 45 45 43 42 42 42 43 43 43 43 44
47 47 48 49 49 49 50 51 50 50 51 51 52 52 51 50 50 50 50 49 49 49 49 48 48 48 48 49 48 47 47 47 47 46 46 44 44 44 44 44 44 44 44
47 48 49 49 49 49 49 49 50 50 50 51 50 49 49 50 50 50 51 51 50 50 50 50 49 49 49 49 49 49 48 48 48 48 48 48 48 47 47 46 46 45 45
46 47 48 49 49 49 48 49 49 49 49 49 49 48 48 49 50 51 51 51 52 51 51 51 51 51 50 50 50 51 50 50 50 50 50 50 49 49 49 48 47 47 46
45 46 46 47 47 47 47 47 47 47 48 49 48 48 48 48 49 50 51 51 51 51 52 52 52 53 53 52 52 52 51 50 50 50 50 50 50 50 49 48 47 47 47
44 44 45 45 46 46 46 46 46 46 47 47 47 47 47 48 48 49 49 49 49 50 51 52 52 53 53 53 53 52 52 51 51 51 51 50 50 50 49 48 48 48 47
42 43 43 44 44 44 44 45 46 46 46 46 46 45 46 47 48 48 48 48 48 49 49 51 52 53 53 53 53 53 53 52 52 52 51 50 50 50 49 48 48 48 47
40 41 41 42 42 42 42 43 44 45 45 44 44 44 44 45 45 46 47 48 48 48 48 49 49 50 51 52 53 54 54 52 52 52 51 50 50 50 49 49 48 48 47
38 39 40 40 41 41 41 41 41 42 43 43 43 44 44 45 46 46 46 47 47 47 47 47 48 49 50 51 52 53 53 53 52 52 51 51 50 50 49 50 49 49 48
36 37 38 38 39 40 39 40 40 40 41 42 43 43 44 45 46 47 47 47 47 46 46 46 47 48 48 49 50 51 52 52 52 51 50 50 50 49 49 49 49 49 49
33 34 36 37 37 36 37 39 39 39 40 40 41 42 43 43 44 45 46 47 47 47 47 47 47 47 48 48 49 50 50 50 50 50 50 50 50 50 50 49 49 50 49
31 32 33 35 36 37 37 36 37 38 39 39 39 40 41 42 43 43 44 45 45 46 47 47 47 47 48 48 48 48 48 48 48 48 49 50 50 50 50 50 49 50 51
29 30 32 33 35 35 36 36 36 36 37 37 38 39 39 40 41 42 42 43 43 44 44 45 45 46 46 47 47 47 47 47 47 47 48 48 49 50 49 49 49 50 50
27 28 30 31 33 34 34 34 35 36 35 35 35 36 37 38 38 39 40 40 41 41 42 42 43 43 43 44 45 45 46 46 46 47 47 47 47 47 47 48 48 49 49
26 27 28 29 30 31 32 32 33 33 34 34 34 34 35 35 36 37 38 39 39 39 40 41 42 43 43 43 43 44 44 45 45 45 45 46 46 46 46 46 47 48 48
24 25 25 26 27 28 28 29 30 30 31 31 31 32 33 33 34 35 36 36 36 37 38 39 40 41 41 41 42 42 43 44 44 44 44 44 44 45 45 45 46 47 47
22 23 23 23 24 26 27 28 29 29 29 30 31 31 31 31 32 33 34 34 34 35 36 36 37 38 39 39 40 40 42 42 42 43 42 42 43 43 44 44 44 45 45
23 23 23 23 24 24 25 26 27 28 29 30 30 31 31 31 31 32 32 33 34 34 35 35 35 36 37 37 38 39 40 40 41 41 41 41 41 42 42 42 43 43 43
24 24 24 24 24 25 25 25 26 26 28 29 30 31 31 31 31 31 31 32 33 34 34 34 35 35 36 36 37 38 38 38 38 39 39 39 39 40 40 40 41 41 42
24 24 24 24 24 25 25 25 26 26 27 27 28 29 30 30 30 30 30 31 32 33 33 34 34 34 34 35 35 36 37 37 37 37 38 38 38 38 39 39 39 39 39
24 24 24 24 24 25 25 25 26 26 26 27 27 28 29 29 29 30 30 30 31 31 31 32 32 32 33 33 33 34 35 35 35 36 36 36 36 37 37 37 37 37 37
23 23 23 23 23 24 24 24 24 25 25 25 26 27 28 28 29 29 29 29 29 29 29 30 30 31 31 32 32 32 33 34 34 34 35 35 35 35 35 35 35 35 34
22 22 22 23 23 23 23 23 23 24 24 25 25 26 27 27 28 28 28 28 28 28 28 29 29 30 30 31 31 31 31 32 32 33 33 33 33 33 33 33 33 32 32
21 21 21 22 23 23 23 23 23 24 24 24 25 25 26 26 27 27 28 28 28 28 28 28 29 29 30 30 30 31 30 30 31 31 31 31 32 32 31 31 30 30 30
Wind_Direction
244 243 245 246 247 247 247 246 247 247 247 248 248 247 247 248 249 250 251 250 251 251 251 251 251 254 256 257 258 260 261 261 262 264 266 267 268 269 270 271 274 275 276
245 246 247 247 248 248 248 249 248 248 248 247 248 248 248 249 249 249 250 250 251 251 251 251 251 253 256 257 258 260 261 262 263 264 265 265 267 268 270 272 273 275 276
247 248 248 249 249 249 249 249 249 248 247 247 248 248 248 248 249 249 249 250 251 251 251 251 252 253 254 256 258 260 261 261 263 264 265 266 267 269 271 272 274 275 277
248 249 249 249 249 249 250 249 249 249 248 248 248 249 248 248 248 249 248 249 250 251 251 252 253 254 255 257 258 260 261 261 262 264 265 266 268 269 270 272 273 275 276
249 249 250 250 250 250 249 249 250 250 250 249 249 249 249 248 249 249 249 250 251 252 253 254 254 255 256 257 258 260 261 261 262 263 264 266 268 269 270 271 272 273 275
251 251 250 250 250 250 249 250 250 250 250 251 251 250 251 251 251 251 251 251 252 254 254 254 255 255 256 257 258 259 261 262 262 263 264 266 267 269 270 270 271 272 274
252 251 252 252 250 249 249 250 251 252 252 252 253 252 253 252 252 252 252 253 254 254 254 255 255 255 256 257 258 259 260 261 262 263 264 266 267 268 269 270 271 273 274
252 251 252 252 250 250 250 250 250 252 252 252 253 253 253 253 253 253 253 254 255 255 255 255 255 256 257 257 257 258 258 260 262 263 264 265 266 268 269 270 270 271 273
254 253 252 250 249 250 250 251 251 252 252 252 252 253 253 252 252 252 253 254 255 256 256 256 256 256 256 256 256 257 258 260 260 262 264 265 265 267 268 269 270 271 272
255 254 252 250 249 250 251 251 251 252 252 252 252 252 251 252 252 252 253 253 254 255 255 255 255 255 256 255 256 257 258 259 260 260 261 263 265 266 267 268 270 271 272
256 255 252 251 250 250 250 250 250 251 251 251 252 252 252 253 252 253 253 254 254 255 255 256 255 255 256 256 257 258 259 259 260 260 261 262 264 265 266 268 269 271 272
257 255 253 251 251 250 250 250 251 252 252 253 253 252 253 253 253 253 254 254 255 255 256 257 257 256 256 257 259 260 260 260 260 260 261 262 263 264 266 267 269 271 272
258 257 254 252 252 251 252 252 253 254 255 255 255 254 253 253 254 254 254 254 255 256 257 258 258 258 258 259 260 261 261 261 261 261 261 262 262 264 265 267 268 270 271
260 257 255 254 253 253 253 253 253 254 255 255 255 254 254 254 255 255 255 255 256 257 258 258 258 259 259 259 260 261 261 261 261 262 262 262 262 263 265 266 268 269 270
262 258 257 256 255 254 254 254 255 255 256 256 255 255 255 256 256 256 255 256 257 257 258 258 258 258 259 259 259 260 261 261 262 263 263 264 265 265 265 267 268 269 270
264 261 258 257 256 255 255 255 255 254 254 255 256 256 257 257 257 257 256 256 256 257 258 259 259 259 260 259 259 259 260 262 262 263 263 264 265 266 267 267 268 269 270
266 265 263 260 257 255 254 253 254 254 255 256 258 258 258 257 257 257 257 257 257 258 259 260 260 260 260 260 259 259 260 261 261 262 263 264 265 266 267 268 268 269 269
267 266 265 261 257 255 254 253 254 255 256 256 257 259 259 258 258 258 257 258 258 259 260 260 261 261 261 260 260 260 260 260 261 262 263 264 265 266 267 268 269 269 270
269 267 265 263 260 258 255 254 255 256 256 257 258 259 260 261 260 258 257 257 259 260 261 262 262 262 262 261 261 261 261 261 262 263 264 264 266 267 268 269 270 270 271
271 269 265 263 262 260 259 258 259 259 257 257 259 260 260 260 259 259 258 259 260 261 261 262 262 263 262 262 262 262 261 262 262 263 264 266 267 268 269 270 270 271 272
271 269 267 265 263 261 260 260 261 261 260 259 259 259 259 258 258 258 259 261 261 261 261 262 262 262 263 264 264 263 262 262 263 264 265 266 268 269 270 270 271 272 273
270 269 267 265 263 262 262 262 262 263 262 261 260 259 258 257 257 259 261 262 262 262 261 262 262 263 264 265 265 263 262 262 263 264 265 267 268 269 270 271 272 273 274
271 269 268 266 264 263 263 263 263 263 263 262 260 259 258 258 259 261 261 262 262 263 262 262 261 263 264 266 267 266 264 263 263 264 265 266 268 269 270 271 272 273 274
271 270 267 264 263 263 263 264 264 263 263 263 261 260 259 260 261 261 261 261 261 261 262 262 262 263 265 266 267 266 265 264 264 264 265 266 268 269 270 272 273 274 274
271 269 266 264 263 263 265 266 266 265 265 264 263 262 261 260 261 261 261 262 262 262 262 263 263 264 265 266 266 267 267 266 266 265 266 266 267 269 271 272 273 274 274
270 268 266 264 263 264 265 267 267 267 267 266 264 263 262 262 262 261 261 261 261 262 263 263 263 264 265 266 267 268 268 267 267 266 267 267 268 270 271 272 273 274 275
Height
5618 5621 5625 5628 5632 5635 5639 5643 5646 5649 5652 5656 5659 5663 5667 5671 5674 5677 5680 5684 5687 5690 5693 5696 5699 5702 5705 5707 5709 5711 5713 5716 5718 5721 5721 5722 5722 5723 5723 5723 5723 5723 5722
5607 5610 5613 5616 5620 5623 5626 5630 5633 5636 5640 5643 5646 5650 5654 5657 5661 5665 5668 5671 5675 5678 5681 5684 5687 5690 5693 5695 5698 5700 5702 5704 5706 5709 5710 5710 5711 5711 5712 5712 5712 5711 5711
5595 5598 5601 5604 5608 5611 5614 5617 5620 5624 5627 5630 5633 5637 5640 5644 5648 5652 5656 5659 5662 5666 5669 5672 5675 5678 5681 5683 5686 5688 5690 5692 5694 5696 5698 5699 5699 5700 5700 5700 5699 5699 5699
5584 5587 5589 5592 5595 5599 5602 5605 5608 5611 5614 5617 5620 5623 5627 5631 5635 5639 5643 5646 5649 5653 5656 5659 5662 5665 5668 5671 5673 5676 5678 5680 5682 5684 5685 5686 5687 5687 5687 5687 5687 5687 5686
5571 5574 5577 5579 5583 5586 5589 5592 5595 5598 5601 5604 5607 5611 5614 5618 5622 5625 5629 5633 5636 5639 5642 5645 5649 5652 5655 5658 5661 5663 5665 5667 5669 5670 5672 5673 5674 5675 5675 5675 5675 5674 5674
5560 5562 5564 5567 5570 5573 5576 5579 5582 5585 5588 5591 5594 5598 5601 5605 5608 5611 5615 5619 5622 5626 5629 5632 5635 5638 5641 5644 5647 5649 5652 5654 5655 5657 5659 5660 5661 5661 5662 5662 5661 5662 5662
5548 5550 5552 5554 5557 5560 5563 5566 5569 5572 5575 5578 5581 5585 5589 5592 5595 5598 5601 5605 5608 5612 5615 5618 5621 5624 5627 5630 5633 5635 5637 5639 5641 5643 5645 5646 5647 5648 5648 5649 5648 5647 5648
5536 5538 5540 5542 5545 5548 5551 5554 5557 5560 5563 5566 5569 5572 5575 5578 5581 5584 5587 5591 5594 5597 5601 5604 5607 5610 5612 5615 5618 5621 5623 5625 5628 5629 5631 5632 5632 5633 5633 5634 5634 5634 5634
5525 5527 5529 5531 5533 5536 5539 5542 5545 5547 5550 5553 5556 5558 5561 5565 5568 5571 5574 5577 5581 5584 5586 5589 5592 5595 5598 5601 5604 5607 5609 5611 5612 5614 5616 5617 5618 5619 5619 5620 5620 5620 5620
5514 5516 5518 5520 5522 5524 5527 5530 5532 5535 5538 5540 5543 5546 5548 5551 5554 5557 5560 5564 5568 5571 5573 5576 5578 5581 5583 5585 5588 5591 5594 5596 5598 5600 5601 5603 5604 5605 5605 5606 5606 5606 5606
5503 5505 5507 5508 5511 5513 5515 5518 5520 5523 5526 5528 5531 5534 5536 5539 5541 5544 5547 5551 5554 5557 5560 5562 5564 5567 5569 5571 5574 5576 5579 5581 5582 5585 5587 5588 5590 5591 5591 5592 5592 5593 5593
5493 5494 5496 5498 5500 5502 5504 5507 5509 5511 5514 5516 5518 5521 5523 5526 5528 5531 5534 5538 5541 5544 5547 5549 5551 5553 5555 5558 5560 5562 5564 5566 5568 5570 5572 5574 5576 5577 5578 5578 5578 5579 5579
5483 5484 5486 5487 5489 5491 5493 5496 5498 5500 5502 5504 5506 5509 5511 5513 5516 5518 5521 5524 5527 5531 5533 5536 5538 5540 5542 5544 5546 5548 5549 5551 5553 5556 5558 5560 5561 5562 5563 5564 5564 5564 5565
5474 5475 5476 5478 5479 5481 5483 5485 5487 5489 5491 5493 5495 5498 5500 5502 5504 5506 5509 5512 5515 5517 5520 5522 5525 5527 5529 5531 5532 5534 5536 5538 5539 5542 5544 5545 5546 5547 5548 5549 5550 5550 5551
5466 5466 5467 5468 5470 5471 5473 5475 5477 5479 5480 5483 5485 5486 5489 5491 5492 5494 5496 5500 5502 5505 5507 5509 5511 5514 5516 5518 5519 5521 5522 5524 5526 5528 5529 5531 5532 5533 5534 5535 5535 5536 5537
5458 5458 5458 5459 5460 5462 5463 5465 5466 5469 5471 5472 5474 5476 5478 5480 5481 5483 5485 5488 5490 5493 5495 5497 5499 5501 5503 5504 5506 5508 5509 5511 5512 5514 5515 5516 5518 5519 5520 5520 5521 5521 5522
5450 5450 5450 5451 5452 5453 5455 5456 5458 5460 5461 5463 5464 5466 5467 5469 5471 5473 5475 5477 5479 5481 5483 5485 5487 5488 5490 5491 5493 5495 5496 5498 5499 5501 5502 5503 5504 5505 5506 5506 5507 5507 5508
5442 5442 5442 5443 5444 5445 5446 5448 5449 5451 5452 5454 5455 5457 5458 5459 5461 5462 5464 5466 5469 5470 5472 5474 5475 5476 5477 5479 5481 5482 5484 5485 5486 5488 5489 5490 5491 5492 5492 5493 5493 5494 5494
5435 5435 5435 5435 5436 5437 5438 5440 5441 5442 5444 5445 5447 5448 5449 5450 5451 5453 5454 5457 5459 5460 5461 5462 5463 5465 5466 5467 5468 5470 5471 5473 5474 5475 5476 5477 5478 5479 5479 5480 5480 5480 5480
5428 5428 5428 5428 5429 5429 5430 5432 5433 5434 5435 5437 5438 5439 5440 5441 5442 5444 5445 5447 5448 5450 5451 5452 5453 5454 5455 5456 5457 5458 5459 5461 5462 5463 5464 5465 5466 5466 5467 5467 5467 5467 5467
5420 5420 5420 5421 5421 5422 5423 5424 5425 5426 5426 5428 5429 5430 5431 5432 5434 5435 5436 5437 5438 5440 5440 5441 5442 5443 5444 5445 5446 5447 5448 5449 5450 5452 5453 5453 5454 5454 5454 5455 5454 5454 5454
5413 5413 5413 5413 5414 5415 5415 5416 5417 5418 5418 5419 5420 5421 5422 5423 5424 5425 5427 5428 5428 5429 5430 5431 5432 5433 5434 5434 5435 5435 5436 5438 5439 5440 5441 5442 5442 5442 5443 5443 5443 5442 5442
5405 5405 5405 5406 5406 5407 5408 5409 5409 5410 5411 5411 5412 5413 5413 5414 5415 5416 5417 5418 5419 5419 5420 5421 5422 5423 5423 5424 5424 5425 5425 5427 5428 5428 5429 5430 5431 5431 5431 5431 5431 5431 5431
5397 5398 5398 5398 5399 5400 5401 5401 5402 5402 5403 5403 5404 5405 5405 5406 5407 5407 5408 5409 5410 5410 5411 5412 5412 5413 5413 5414 5414 5414 5415 5416 5417 5417 5418 5419 5419 5420 5420 5420 5420 5420 5420
5390 5390 5391 5391 5392 5393 5393 5394 5394 5395 5395 5395 5396 5396 5397 5398 5398 5399 5399 5400 5401 5401 5402 5403 5403 5404 5404 5404 5404 5405 5405 5405 5406 5407 5408 5408 5409 5409 5410 5410 5410 5410 5410
5383 5384 5384 5384 5385 5386 5386 5387 5387 5387 5387 5387 5388 5388 5389 5389 5390 5390 5391 5392 5392 5393 5393 5393 5394 5394 5395 5395 5395 5395 5396 5396 5396 5397 5398 5399 5399 5400 5400 5400 5401 5401 5401